Location: Unspecified
(40.7945°N, 111.1337°W)
Time: 18:53:06
(UTC-06:00)

Hubble Space Telescope - Visible Passes

Search period start: 22 March 2019 00:00
Search period end: 01 April 2019 00:00
Orbit: 537 x 540 km, 28.5° (Epoch: 22 March)

Date Brightness Start Highest point End Pass type
(mag) Time Alt. Az. Time Alt. Az. Time Alt. Az.
26 Mar 3.1 20:16:05 10° S 20:16:38 10° SSE 20:17:12 10° SSE visible
26 Mar 3.4 21:54:43 10° SSW 21:54:48 10° SSW 21:54:48 10° SSW visible
27 Mar 3.2 21:44:07 10° SW 21:45:02 13° SSW 21:45:02 13° SSW visible
28 Mar 3.0 21:33:35 10° SW 21:35:13 14° SSW 21:35:13 14° SSW visible
29 Mar 2.9 21:23:08 10° SW 21:25:12 14° S 21:25:23 14° S visible
30 Mar 3.0 21:12:46 10° SW 21:14:36 13° S 21:15:32 12° S visible
31 Mar 3.1 21:02:33 10° SSW 21:03:58 12° SSW 21:05:24 10° S visible
